Regional Weather Roundup
Issued by NWS

Home | Current Version | Previous Version | Text Only | Print | Product List | Glossary Off
Versions: 1 2 3 4 5 6 7 8 9 10 11 12 13 14 15 16 17 18 19 20 21 22 23 24 25 26 27 28 29 30 31 32 33 34 35 36 37 38 39 40 41 42 43 44 45 46 47 48 49 50

000
ASUS43 KMKX 200611
RWRWI

WISCONSIN REGIONAL WEATHER ROUNDUP
NATIONAL WEATHER SERVICE MILWAUKEE/SULLIVAN WI
1200 AM CST FRI JAN 20 2017

NOTE: "FAIR" INDICATES FEW OR NO CLOUDS BELOW 12,000 FEET WITH NO
SIGNIFICANT WEATHER AND/OR OBSTRUCTIONS TO VISIBILITY.

WIZ001-002-006>008-014>016-023>028-200700-
NORTHWEST WISCONSIN

CITY           SKY/WX    TMP DP  RH WIND       PRES   REMARKS
SUPERIOR ARPT  CLOUDY    29  29 100 CALM      29.70F FOG
6HR MIN TEMP:  28; 6HR MAX TEMP:  32;

ASHLAND          N/A     29  27  92 S6        29.72F WCI  23
6HR MIN TEMP:  26; 6HR MAX TEMP:  40;

HAYWARD        CLOUDY    35  31  85 E5        29.71S WCI  31
6HR MIN TEMP:  29; 6HR MAX TEMP:  36;

SIREN          LGT RAIN  37  32  82 SE3       29.69F
6HR MIN TEMP:  36; 6HR MAX TEMP:  40;

CUMBERLAND     CLOUDY    34  32  93 SE8       29.70F WCI  27
RICE LAKE      CLOUDY    35  32  88 SE7       29.73F WCI  29
6HR MIN TEMP:  35; 6HR MAX TEMP:  37;

CHETEK         NOT AVBL
LADYSMITH      CLOUDY    35  32  89 SE6       29.75S WCI  30
6HR MIN TEMP:  34; 6HR MAX TEMP:  37;

EAU CLAIRE     LGT RAIN  36  33  89 E7        29.71F FOG     WCI  30
6HR MIN TEMP:  34; 6HR MAX TEMP:  39; 6HR PCP:  0.02;

MENOMONIE        N/A    N/A N/A N/A MISG        N/A
NEW RICHMOND   DRIZZLE   35  34  96 SE5       29.69S WCI  31
6HR MIN TEMP:  35; 6HR MAX TEMP:  36; 6HR PCP:  0.02;

OSCEOLA        RAIN      36  33  87 SE6       29.71F WCI  31
6HR MIN TEMP:  35; 6HR MAX TEMP:  37;

$$

WIZ003>005-009-010-017-018-200700-
NORTH CENTRAL WISCONSIN

CITY           SKY/WX    TMP DP  RH WIND       PRES   REMARKS
MANITOWISH WTR NOT AVBL
ARBOR VITAE    CLOUDY    29  28  96 CALM      29.74S FOG
6HR MIN TEMP:  27; 6HR MAX TEMP:  37;

WOODRUFF       CLOUDY    29  28  96 CALM      29.74S FOG
6HR MIN TEMP:  27; 6HR MAX TEMP:  37;

RHINELANDER    MOCLDY    29  29 100 CALM      29.75S FOG
6HR MIN TEMP:  27; 6HR MAX TEMP:  37;

EAGLE RIVER    FOG       27  27 100 CALM      29.73F VSB 1/2
6HR MIN TEMP:  26; 6HR MAX TEMP:  36;

LAND O LAKES     N/A     25  24  98 CALM      29.75F FOG
6HR MIN TEMP:  25; 6HR MAX TEMP:  38;

PHILLIPS       CLOUDY    31  29  95 CALM      29.73F
6HR MIN TEMP:  30; 6HR MAX TEMP:  36;

TOMAHAWK       CLOUDY    30  29  97 CALM      29.76F FOG
6HR MIN TEMP:  30; 6HR MAX TEMP:  32;

MEDFORD        CLOUDY    32  31  97 SE6       29.74F FOG     WCI  26
6HR MIN TEMP:  31; 6HR MAX TEMP:  32;

MERRILL        CLOUDY    31  31 100 CALM        N/A  FOG
6HR MIN TEMP:  31; 6HR MAX TEMP:  32;

$$

WIZ029-030-035-036-043>047-200700-
CENTRAL WISCONSIN

CITY           SKY/WX    TMP DP  RH WIND       PRES   REMARKS
WAUSAU         CLOUDY    31  31 100 CALM      29.75F FOG
6HR MIN TEMP:  31; 6HR MAX TEMP:  32;

MOSINEE        CLOUDY    32  32 100 CALM      29.76F FOG
MARSHFIELD     LGT RAIN  33  31  92 E7        29.73F FOG     WCI  27
6HR MIN TEMP:  31; 6HR MAX TEMP:  33; 6HR PCP:  0.02;

STEVENS POINT  MIX PCPN  30  30 100 NE3       29.76F
6HR MIN TEMP:  30; 6HR MAX TEMP:  32;

WAUPACA        RAIN      33  32  95 CALM      29.79F
6HR MIN TEMP:  33; 6HR MAX TEMP:  34;

WAUTOMA        MIX PCPN  32  32 100 NE5       29.77F FOG     WCI  27
6HR MIN TEMP:  32; 6HR MAX TEMP:  32; 6HR PCP:  0.02;

WISC RAPIDS    LGT RAIN  33  33 100 E5        29.76F FOG     WCI  29
CAMP DOUGLAS   LGT RAIN  34  33  98 E6        29.73F FOG     WCI  29
6HR MIN TEMP:  34; 6HR MAX TEMP:  36; 6HR PCP:  0.20;

$$

WIZ011>013-019>022-031-037>040-048>050-200700-
NORTHEAST WISCONSIN

CITY           SKY/WX    TMP DP  RH WIND       PRES   REMARKS
ANTIGO         CLOUDY    30  30 100 SE3       29.76F FOG
6HR MIN TEMP:  29; 6HR MAX TEMP:  30;

SHAWANO        CLOUDY    33  32  97 E3        29.80S FOG
6HR MIN TEMP:  32; 6HR MAX TEMP:  33;

OCONTO         CLOUDY    31  31  99 CALM      29.81F
6HR MIN TEMP:  31; 6HR MAX TEMP:  32;

STURGEON BAY   FOG       33  32  96 SE3       29.81F VSB 1/4
6HR MIN TEMP:  31; 6HR MAX TEMP:  33;

GREEN BAY      FOG       34  34 100 E3        29.80F VSB 1/2
6HR MIN TEMP:  33; 6HR MAX TEMP:  34;

MANITOWOC      FOG       35  34  96 MISG      29.80F VSB 1/4
6HR MIN TEMP:  33; 6HR MAX TEMP:  35;

APPLETON       CLOUDY    32  32 100 E3        29.77F FOG
CLINTONVILLE   CLOUDY    32  32 100 CALM      29.80F FOG
OSHKOSH        CLOUDY    33  31  92 CALM      29.77F FOG
6HR MIN TEMP:  32; 6HR MAX TEMP:  33; 6HR PCP: TRACE;

$$

WIZ032>034-041-042-053>061-200700-
SOUTHWEST WISCONSIN

CITY           SKY/WX    TMP DP  RH WIND       PRES   REMARKS
LA CROSSE      LGT RAIN  38  34  85 SE5       29.72F FOG     WCI  34
6HR MIN TEMP:  38; 6HR MAX TEMP:  40; 6HR PCP:  0.11;

SPARTA         RAIN      34  33  99 E8        29.73F WCI  27
6HR MIN TEMP:  34; 6HR MAX TEMP:  37; 6HR PCP:  0.29;

VIROQUA        CLOUDY    34  34 100 E7        29.70F VSB 1   WCI  28
6HR MIN TEMP:  34; 6HR MAX TEMP:  35; 6HR PCP:  0.04;

BOSCOBEL       CLOUDY    36  35  96 NE3       29.70F FOG
6HR MIN TEMP:  36; 6HR MAX TEMP:  37; 6HR PCP:  0.11;

PRAIRIE DU CHI CLOUDY    36  35  96 CALM      29.69F FOG
6HR MIN TEMP:  35; 6HR MAX TEMP:  36; 6HR PCP:  0.07;

PLATTEVILLE    CLOUDY    35  35 100 E7        29.67F WCI  29
6HR MIN TEMP:  35; 6HR MAX TEMP:  36; 6HR PCP:  0.15;

$$

WIZ056-057-062-063-064-067-068-200700-
SOUTH CENTRAL WISCONSIN

CITY           SKY/WX    TMP DP  RH WIND       PRES   REMARKS
REEDSBURG      LGT RAIN  33  33 100 NE5       29.72F WCI  29
6HR MIN TEMP:  33; 6HR MAX TEMP:  36; 6HR PCP:  0.33;

BARABOO/DELLS  LGT RAIN  34  33  98 E7        29.73F VSB 1   WCI  28
6HR MIN TEMP:  33; 6HR MAX TEMP:  35; 6HR PCP:  0.23;

LONE ROCK      CLOUDY    37  34  89 E9        29.71F FOG     WCI  30
6HR MIN TEMP:  35; 6HR MAX TEMP:  37; 6HR PCP:  0.23;

MINERAL POINT  CLOUDY    36  36 100 E9        29.66F FOG     WCI  29
MADISON        RAIN      35  34  96 E9        29.73F FOG     WCI  28
6HR MIN TEMP:  35; 6HR MAX TEMP:  36; 6HR PCP:  0.29;

MIDDLETON      CLOUDY    36  36 100 E6        29.72F WCI  31
6HR MIN TEMP:  35; 6HR MAX TEMP:  37; 6HR PCP:  0.18;

WATERTOWN      RAIN      34  34 100 NE5       29.74F WCI  30
6HR MIN TEMP:  34; 6HR MAX TEMP:  36; 6HR PCP:  0.11;

MONROE         FOG       34  34 100 E8        29.68F VSB 1/4 WCI  27
JANESVILLE     LGT RAIN  36  36 100 NE10      29.70F WCI  28
$$

WIZ051-052-058>065-066-070>072-200700-
SOUTHEAST WISCONSIN

CITY           SKY/WX    TMP DP  RH WIND       PRES   REMARKS
MILWAUKEE      LGT RAIN  38  36  92 E8        29.75F FOG     WCI  32
6HR MIN TEMP:  36; 6HR MAX TEMP:  38; 6HR PCP:  0.07;

WAUKESHA       RAIN      34  34 100 NE5       29.76F WCI  30
MILWAUKEE/TIMM RAIN      36  34  93 E3        29.77F
RACINE         RAIN      38  36  92 E7        29.76F FOG     WCI  33
6HR MIN TEMP:  35; 6HR MAX TEMP:  38; 6HR PCP:  0.12;

KENOSHA        LGT RAIN  37  36  96 E7        29.73F VSB 3/4 WCI  32
6HR MIN TEMP:  36; 6HR MAX TEMP:  38; 6HR PCP:  0.24;

FOND DU LAC    LGT RAIN  35  32  88 E3        29.77F FOG
6HR MIN TEMP:  33; 6HR MAX TEMP:  35; 6HR PCP:  0.01;

SHEBOYGAN      FOG       34  33  96 NE3       29.78F VSB 1/4
6HR MIN TEMP:  32; 6HR MAX TEMP:  34; 6HR PCP: TRACE;

WEST BEND      RAIN      34  34 100 CALM      29.77F VSB 1/4
JUNEAU         DRIZZLE   34  33  98 E3        29.76F
6HR MIN TEMP:  33; 6HR MAX TEMP:  34; 6HR PCP:  0.02;

$$

LSZ147-162-200700-
LAKE SUPERIOR

STATION/POSITION TIME  TEMP    WIND        PRES    WAVE
                       AIR SEA DIR/SP/G            HT/PER
                 (UTC) (F)     (DEG/KT/KT) (MB)    (FT/S)
DEVILS ISLAND    0500   40     220/  7/  8 1006.7F
PORT WING        0530   36     150/  3/  4 1006.4F
SAXON HARBOR     0540   32      CALM  /  3 1006.4F
$$

LMZ867-665-643>646-200700-
LAKE MICHIGAN

STATION/POSITION TIME  TEMP    WIND        PRES    WAVE
                       AIR SEA DIR/SP/G            HT/PER
                 (UTC) (F)     (DEG/KT/KT) (MB)    (FT/S)
NORTHPORT PIER   0540   33        CALM     1010.2S
SISTER BAY       0550   33        CALM       N/A
ALGOMA LAKESHORE 0539             CALM       N/A
KEWAUNEE LAKESHO 0548           30/  1/  3 1008.8F
SHEBOYGAN LAKESH 0600   36      30/  4/  4 1008.8F
PORT WASHINGTON  0530   36      30/  6/  7 1009.5F
MILWAUKEE LAKESH 0550



USA.gov is the U.S. government's official web portal to all federal, state and local government web resources and services.